Skagway, AK

11:36 AM AKDT on July 22, 2017 (GMT -0800)
Skagway

Weather History for PAGY - February, 2013

Change the Weather History Date:

Saturday, February 9, 2013

  Actual Average Record
Temperature  
Mean Temperature 41 °F -  
Max Temperature 43 °F 32 °F 48 °F (1968)
Min Temperature 39 °F 25 °F -7 °F (1990)
Degree Days  
Heating Degree Days 24    
Moisture  
Dew Point 34 °F    
Average Humidity 76    
Maximum Humidity 87    
Minimum Humidity 70    
Precipitation  
Precipitation 0.08 in - - ()
Sea Level Pressure  
Sea Level Pressure 29.96 in    
Wind  
Wind Speed 21 mph (SSW)    
Max Wind Speed 34 mph    
Max Gust Speed 53 mph    
Visibility 10 miles    
Events Rain    
Averages and records for this station are not official NWS values.
T = Trace of Precipitation, MM = Missing Value Source: NWS Daily Summary

Daily Weather History Graph

Daily Weather History Graph

Search for Another Location

Airport or City:

Trip Planner

Search our weather history database for the weather conditions in past years. The results will help you decide how hot, cold, wet, or windy it might be!

Date:

Astronomy

Feb. 09, 2013 Rise Set
Actual Time 7:51 AM AKST 4:40 PM AKST
Civil Twilight 7:07 AM AKST 5:24 PM AKST
Nautical Twilight 6:18 AM AKST 6:13 PM AKST
Astronomical Twilight 5:31 AM AKST 7:00 PM AKST
Moon 7:03 AM AKST (2/9) 4:42 PM AKST (2/9)
Length of Visible Light 10h 17m
Length of Day
8h 48m
Waning Crescent, 0% of the Moon is Illuminated
Feb 9
Waning Crescent
Feb 9
New
Feb 17
First Quarter
Feb 25
Full
Mar 4
Last Quarter

Hourly Weather History & Observations

Time (AKST) Temp. Windchill Dew Point Humidity Pressure Visibility Wind Dir Wind Speed Gust Speed Precip Events Conditions
12:08 AM 39.2 °F 29.8 °F 35.6 °F 87% 30.06 in 10.0 mi SSW 18.4 mph 25.3 mph N/A   Mostly Cloudy
12:53 AM 39.0 °F 30.3 °F 35.1 °F 86% 30.06 in 10.0 mi SSW 16.1 mph 24.2 mph N/A   Mostly Cloudy
1:53 AM 39.0 °F 32.8 °F 35.1 °F 86% 30.07 in 10.0 mi South 9.2 mph 19.6 mph N/A   Overcast
3:53 AM 39.9 °F 30.2 °F 34.0 °F 79% 30.07 in 10.0 mi SSW 20.7 mph 27.6 mph N/A   Overcast
4:53 AM 39.9 °F 31.4 °F 34.0 °F 79% 30.05 in 10.0 mi SSW 16.1 mph 21.9 mph N/A   Overcast
5:53 AM 41.0 °F 32.5 °F 33.1 °F 73% 30.05 in 10.0 mi SSW 17.3 mph 24.2 mph N/A   Overcast
6:53 AM 41.0 °F 32.8 °F 32.0 °F 70% 30.05 in 10.0 mi South 16.1 mph 20.7 mph N/A   Overcast
7:53 AM 41.0 °F 32.5 °F 33.1 °F 73% 30.05 in 10.0 mi SSW 17.3 mph 25.3 mph N/A   Overcast
8:53 AM 41.0 °F 32.2 °F 33.1 °F 73% 30.04 in 10.0 mi SSW 18.4 mph 25.3 mph N/A   Overcast
9:53 AM 41.0 °F 31.6 °F 32.0 °F 70% 30.02 in 10.0 mi SSW 20.7 mph 28.8 mph N/A   Overcast
10:53 AM 41.0 °F 31.4 °F 33.1 °F 73% 30.01 in 10.0 mi SSW 21.9 mph 29.9 mph N/A   Overcast
11:53 AM 41.0 °F 30.2 °F 33.1 °F 73% 30.01 in 10.0 mi SSW 27.6 mph 40.3 mph N/A   Overcast
12:53 PM 41.0 °F 30.5 °F 33.1 °F 73% 29.99 in 10.0 mi SSW 26.5 mph 43.7 mph N/A   Overcast
1:53 PM 41.0 °F 30.7 °F 33.1 °F 73% 29.97 in 10.0 mi SSW 25.3 mph 35.7 mph N/A   Overcast
2:53 PM 41.0 °F 30.2 °F 33.1 °F 73% 29.95 in 10.0 mi SSW 27.6 mph 38.0 mph N/A   Overcast
3:53 PM 42.1 °F 33.1 °F 34.0 °F 73% 29.95 in 10.0 mi SSW 20.7 mph 38.0 mph N/A   Overcast
4:53 PM 43.0 °F 34.2 °F 34.0 °F 71% 29.94 in 10.0 mi SSW 20.7 mph 38.0 mph N/A   Overcast
5:53 PM 42.1 °F 31.9 °F 35.1 °F 76% 29.90 in 10.0 mi SSW 26.5 mph 39.1 mph N/A   Overcast
6:53 PM 43.0 °F 32.2 °F 35.1 °F 74% 29.86 in 10.0 mi SSW 32.2 mph 46.0 mph N/A   Overcast
7:53 PM 42.1 °F 30.6 °F 36.0 °F 79% 29.82 in 10.0 mi SSW 34.5 mph 52.9 mph N/A   Overcast
8:53 PM 43.0 °F 32.4 °F 36.0 °F 76% 29.81 in 10.0 mi SSW 31.1 mph 42.6 mph 0.00 in Rain Light Rain
9:53 PM 42.1 °F 31.9 °F 36.0 °F 79% 29.81 in 8.0 mi SSW 26.5 mph 44.9 mph 0.02 in Rain Light Rain
10:53 PM 42.1 °F 30.8 °F 36.0 °F 79% 29.78 in 6.0 mi SSW 33.4 mph 43.7 mph 0.04 in   Haze
11:53 PM 41.0 °F 29.5 °F 36.0 °F 82% 29.78 in 5.0 mi SSW 32.2 mph 43.7 mph 0.02 in   Haze